Location: Unspecified
(0.0000°N, 0.0000°E)
Time: 13:25:50
(UTC+00:00)

Envisat - Pass Details

Date: 20 June 2021
Orbit: 764 x 766 km, 98.1° (Epoch: 18 June)

Event Time Altitude Azimuth Distance (km) Brightness Sun altitude
Rises 04:18:29 0° 33° (NNE) 3,215 7.2 -23.5°
Reaches altitude 10° 04:21:04 10° 44° (NE) 2,292 6.4 -22.9°
Maximum altitude 04:25:20 28° 102° (ESE) 1,413 4.9 -22.0°
Drops below altitude 10° 04:29:37 10° 160° (SSE) 2,301 5.4 -21.0°
Sets 04:32:12 0° 171° (S) 3,230 6.1 -20.4°
